Wind_Speed
2 3 4 4 3 5 5 6 5 5 5 5 6 6 4 7 4 3 2 0 1 12 19 16 15 12 11 12 14 15 14 12 11 12 13 13 13 13 12 11 11 11 11
7 5 4 5 5 5 8 6 6 3 4 5 4 4 1 1 5 5 6 5 3 18 14 14 15 14 12 13 13 15 15 14 14 15 14 13 13 14 12 11 10 11 11
9 7 7 5 6 5 9 5 4 5 1 3 5 4 4 3 5 8 5 3 5 15 20 17 16 14 13 12 14 14 14 14 15 15 15 13 12 12 12 10 10 10 9
11 7 5 5 6 6 3 5 5 5 6 5 6 3 4 4 4 5 3 5 6 11 21 20 18 15 13 13 13 14 15 14 15 15 14 13 12 11 11 10 10 10 9
11 10 7 8 7 7 4 7 8 8 7 6 5 5 4 1 2 2 3 4 4 11 22 20 16 16 15 13 13 13 14 15 14 14 13 13 13 12 11 10 9 9 10
12 11 10 10 9 8 6 5 8 9 8 6 6 5 1 2 1 1 1 4 6 10 19 22 19 20 18 16 15 14 14 14 14 14 13 13 12 11 11 10 9 9 10
12 13 11 11 12 11 9 5 9 9 7 7 4 2 1 4 2 1 1 3 5 9 14 19 22 21 20 18 17 16 15 14 14 14 14 13 12 11 11 11 10 10 11
12 11 12 13 16 15 12 7 9 8 8 8 3 3 2 3 4 3 1 3 4 5 11 15 16 20 21 22 21 19 18 16 15 15 15 14 13 12 12 12 11 12 12
10 13 14 17 16 14 12 11 11 9 8 6 3 3 3 2 6 1 1 2 3 2 5 9 16 18 18 19 22 22 20 19 18 16 16 16 15 15 14 14 14 14 15
10 10 11 11 11 14 14 13 11 12 10 6 4 6 4 4 5 4 6 3 4 2 2 5 9 13 17 17 20 23 22 21 20 19 18 18 18 17 17 17 17 18 18
11 13 9 8 8 13 11 14 11 13 11 8 6 6 5 2 4 4 2 3 5 4 4 3 6 9 11 14 15 18 21 22 22 22 21 20 20 19 20 20 21 21 21
6 7 7 5 5 9 10 9 11 12 11 10 7 5 6 4 1 3 3 1 5 6 3 4 4 3 4 6 9 12 15 17 20 22 22 22 22 23 23 24 24 25 25
3 5 4 2 3 7 10 10 9 10 11 11 8 6 6 5 6 5 5 3 3 4 9 2 1 1 3 4 4 7 9 10 12 15 18 20 22 23 24 25 26 27 28
3 5 3 1 3 5 9 10 10 9 9 8 7 7 6 6 4 6 3 6 2 7 1 8 9 7 4 4 5 5 5 7 9 11 13 13 14 16 17 20 22 23 23
4 5 5 4 3 3 6 8 10 10 9 8 7 8 8 6 6 4 6 6 7 2 1 4 8 8 12 9 7 6 9 7 10 10 9 11 13 14 15 16 19 19 19
2 6 9 3 4 3 5 7 8 8 7 6 6 8 9 9 10 8 4 5 6 7 7 6 6 4 6 17 8 8 10 10 10 12 13 15 15 16 17 17 15 15 17
4 4 5 3 1 0 2 3 5 6 6 7 7 5 7 8 8 10 13 11 10 12 12 10 7 8 8 7 12 15 14 13 14 15 17 17 18 18 18 18 19 19 20
4 1 6 4 7 6 5 5 6 6 5 7 8 9 9 11 10 10 11 9 13 11 12 12 11 11 10 11 13 16 15 14 16 16 17 17 17 17 21 21 20 21 22
3 4 2 4 6 8 10 11 11 9 10 10 8 7 10 10 10 10 11 12 13 13 13 12 12 18 18 17 16 16 16 15 16 16 19 21 20 20 23 21 21 22 23
2 1 1 1 1 4 5 8 10 11 13 13 12 13 11 11 13 11 14 15 16 15 16 17 15 15 19 19 23 21 20 22 20 22 24 27 27 26 25 24 24 25 27
3 2 0 2 3 3 3 5 8 10 12 15 16 17 18 16 15 17 19 19 19 18 17 18 18 19 22 24 25 26 29 29 29 30 31 30 33 33 34 32 31 32 31
5 5 4 4 3 4 5 6 7 8 9 12 13 14 16 18 21 21 21 22 23 26 27 28 27 27 30 32 32 31 29 29 28 27 32 30 28 29 30 29 33 34 33
9 9 9 9 8 7 6 7 9 9 10 9 11 11 18 11 12 14 19 21 22 22 22 24 26 27 30 29 28 27 28 27 28 27 27 30 28 29 29 30 30 30 30
16 16 16 14 12 12 10 9 8 9 10 10 11 11 14 11 15 14 16 17 18 19 20 22 23 22 23 23 26 27 27 27 26 26 27 30 28 28 26 25 25 27 31
20 20 20 19 15 16 13 12 10 10 9 11 10 11 11 11 15 14 15 15 15 17 19 18 18 18 22 23 23 24 25 25 24 24 28 29 29 31 30 27 28 27 29
35 30 30 21 19 17 15 12 12 12 11 12 11 12 13 11 13 14 14 15 16 16 18 19 20 20 22 23 24 25 25 26 26 25 29 28 27 27 27 23 27 25 31
Wind_Direction
355 22 17 349 319 286 273 263 273 227 264 271 289 316 227 203 298 278 150 227 241 174 174 173 179 181 187 192 191 190 186 182 174 166 158 152 146 140 139 135 137 138 134
309 306 335 336 314 291 265 258 249 198 243 251 265 316 330 75 271 327 234 200 206 188 186 186 184 180 176 185 182 184 181 176 171 166 162 163 155 149 148 145 149 152 149
283 278 288 299 311 313 265 251 279 207 312 218 256 285 312 302 288 305 206 210 204 196 196 190 189 185 173 176 176 173 173 171 173 172 168 168 167 159 153 158 161 166 169
276 306 277 275 279 297 279 258 213 206 216 220 259 208 216 212 248 262 228 194 209 205 197 192 191 193 179 177 178 177 175 175 177 176 172 175 178 172 167 171 176 181 186
288 283 277 293 285 285 294 249 231 220 217 232 223 222 182 154 267 259 222 225 186 182 177 189 200 201 195 191 187 187 186 185 183 184 183 183 184 186 184 187 193 199 200
279 289 285 275 279 272 286 271 222 224 233 234 242 167 23 76 31 54 214 201 195 181 188 200 208 204 202 202 200 199 195 195 195 192 193 194 196 196 197 204 211 216 222
278 283 283 274 270 261 247 248 230 230 219 233 268 34 313 134 54 28 226 167 167 190 195 213 216 215 213 213 213 211 210 208 206 202 204 205 206 215 216 213 220 228 233
280 288 282 284 281 253 237 236 227 237 230 252 239 354 171 154 179 59 158 183 203 194 206 207 209 214 216 220 221 221 220 217 219 217 216 218 220 224 231 236 235 239 244
282 291 286 285 265 237 224 227 217 224 233 252 225 187 162 150 161 177 107 172 179 154 206 200 214 215 220 223 227 225 226 228 226 225 229 229 231 234 238 242 246 249 251
293 291 290 286 263 230 227 223 222 215 223 220 201 190 176 192 159 201 224 213 227 188 188 204 213 218 220 219 225 228 227 231 236 234 233 235 237 240 244 248 250 252 255
279 290 283 279 265 226 219 214 227 208 218 202 202 184 197 215 225 223 259 225 220 241 240 195 190 199 208 217 227 228 233 238 241 243 243 242 245 249 252 255 256 258 259
276 288 259 276 242 221 219 211 199 204 210 213 213 210 209 221 213 150 112 354 225 204 206 220 230 216 203 206 220 234 230 233 242 245 247 249 251 254 256 258 261 262 262
357 346 306 235 225 207 208 200 199 206 224 214 218 232 226 238 226 165 259 35 157 147 214 245 16 245 218 219 209 222 219 233 243 251 255 257 259 262 265 265 265 265 265
343 8 15 297 228 204 205 214 212 206 205 216 222 232 237 234 231 163 133 203 229 226 44 356 293 276 271 231 228 243 235 246 248 251 258 259 259 261 266 270 270 267 266
251 336 286 106 111 175 183 194 194 199 206 219 220 222 226 236 232 217 203 191 236 230 302 328 308 275 240 264 261 246 262 266 260 258 261 254 264 273 273 283 279 267 268
251 336 352 4 127 105 172 181 184 196 202 223 226 224 219 227 233 226 242 222 246 238 242 261 259 301 252 266 281 287 288 276 268 268 266 266 270 273 276 278 283 272 272
268 234 325 293 154 106 145 172 190 195 207 220 231 225 220 231 240 240 215 239 236 238 238 249 269 265 275 292 264 281 272 274 277 268 263 265 265 272 278 276 274 271 271
196 97 11 294 226 230 221 215 210 196 214 226 232 227 218 227 240 244 253 254 254 263 259 234 235 246 265 250 268 279 283 288 286 289 282 279 274 269 270 277 277 276 276
175 214 251 212 218 221 219 226 235 223 228 224 221 242 244 232 231 246 254 252 252 259 262 259 238 248 265 274 274 268 269 272 272 276 278 281 284 282 278 277 278 277 278
126 111 38 10 281 247 246 234 237 229 236 236 233 243 244 242 244 239 264 253 256 254 254 262 259 251 257 262 267 269 267 270 267 267 270 272 271 272 272 273 275 275 275
191 193 43 350 335 9 285 273 257 256 249 250 252 254 251 250 245 242 252 260 260 259 260 258 261 260 260 259 264 266 270 273 279 279 277 274 276 277 277 275 272 270 268
242 260 262 278 327 308 309 298 283 272 265 259 263 264 264 251 255 262 267 263 259 260 261 262 262 261 267 269 271 275 278 277 276 274 278 282 282 281 282 282 284 286 284
277 280 284 284 289 293 293 297 291 287 273 270 261 260 262 270 265 250 251 255 255 256 258 260 258 259 260 265 271 272 273 276 274 277 273 275 274 276 278 279 279 279 277
265 272 278 282 285 286 285 283 285 284 280 272 271 267 276 280 273 267 262 262 263 265 266 265 266 268 270 269 269 271 273 275 279 280 279 279 275 273 265 263 266 269 276
269 271 272 276 276 280 279 282 282 278 284 277 274 269 265 264 270 271 273 271 270 272 272 275 277 277 275 277 277 277 279 278 280 280 278 281 280 282 283 280 273 269 271
266 273 268 273 273 272 268 268 275 284 286 287 289 290 288 278 276 277 278 277 276 276 277 283 281 278 274 277 279 280 281 282 282 280 280 282 285 288 282 275 275 276 271
Height
3196 3196 3196 3196 3197 3197 3197 3197 3199 3199 3198 3200 3199 3197 3202 3199 3200 3202 3202 3202 3203 3206 3208 3211 3214 3217 3219 3222 3224 3226 3228 3230 3233 3235 3237 3239 3240 3241 3243 3244 3245 3246 3247
3196 3196 3197 3197 3197 3196 3196 3196 3198 3199 3199 3198 3199 3199 3200 3200 3199 3201 3201 3202 3203 3205 3209 3212 3215 3217 3219 3221 3223 3225 3227 3229 3233 3235 3236 3239 3240 3241 3243 3245 3246 3247 3248
3195 3195 3195 3195 3196 3196 3195 3195 3196 3197 3198 3199 3199 3198 3198 3198 3199 3199 3200 3200 3202 3204 3208 3212 3215 3217 3219 3221 3222 3225 3227 3229 3232 3235 3236 3238 3241 3242 3243 3244 3246 3248 3248
3196 3192 3195 3194 3195 3195 3194 3194 3195 3196 3197 3197 3197 3197 3198 3198 3199 3199 3198 3199 3201 3203 3206 3211 3214 3217 3219 3221 3223 3225 3227 3229 3232 3234 3236 3239 3241 3242 3243 3245 3246 3247 3248
3194 3189 3193 3192 3192 3194 3193 3194 3195 3195 3195 3195 3197 3196 3195 3197 3197 3198 3198 3199 3200 3202 3205 3210 3214 3216 3219 3221 3223 3226 3228 3230 3232 3234 3236 3238 3240 3242 3243 3244 3246 3247 3248
3192 3192 3191 3191 3191 3192 3193 3193 3194 3194 3194 3194 3197 3183 3194 3196 3198 3198 3200 3200 3202 3203 3206 3209 3212 3215 3218 3221 3223 3226 3228 3230 3232 3233 3235 3237 3239 3242 3243 3244 3245 3246 3248
3188 3189 3189 3189 3189 3191 3192 3193 3193 3194 3193 3193 3195 3195 3196 3195 3196 3198 3200 3201 3202 3203 3205 3207 3210 3214 3217 3220 3222 3225 3227 3229 3231 3233 3235 3236 3238 3240 3242 3243 3244 3245 3246
3185 3185 3186 3186 3186 3187 3189 3191 3192 3193 3193 3192 3194 3193 3194 3197 3197 3200 3201 3201 3203 3204 3204 3205 3208 3211 3214 3217 3220 3223 3225 3227 3230 3232 3233 3235 3237 3238 3240 3241 3242 3243 3244
3182 3181 3182 3182 3180 3182 3186 3189 3190 3192 3192 3194 3194 3195 3196 3197 3198 3200 3201 3203 3204 3204 3204 3205 3207 3209 3211 3215 3217 3220 3223 3225 3227 3229 3231 3233 3235 3236 3238 3239 3240 3241 3242
3178 3179 3179 3178 3175 3180 3183 3187 3189 3191 3193 3193 3195 3195 3196 3197 3199 3199 3200 3201 3203 3204 3205 3205 3206 3208 3209 3211 3214 3217 3220 3222 3225 3227 3228 3230 3232 3234 3235 3236 3237 3238 3239
3177 3176 3176 3176 3176 3177 3180 3183 3186 3189 3192 3193 3194 3195 3197 3197 3198 3198 3199 3200 3201 3202 3203 3203 3205 3206 3207 3209 3211 3215 3217 3219 3222 3224 3225 3227 3229 3230 3231 3232 3233 3234 3235
3174 3173 3172 3173 3171 3175 3178 3181 3183 3187 3189 3191 3193 3194 3196 3197 3197 3198 3199 3199 3199 3201 3200 3202 3204 3204 3205 3207 3210 3211 3213 3215 3217 3219 3221 3223 3224 3225 3227 3228 3228 3229 3230
3172 3171 3171 3167 3172 3174 3177 3179 3183 3185 3188 3189 3191 3193 3195 3196 3197 3196 3195 3197 3198 3198 3198 3202 3203 3204 3206 3208 3209 3211 3211 3212 3214 3215 3217 3218 3220 3221 3221 3222 3223 3223 3224
3171 3170 3170 3170 3171 3174 3176 3179 3182 3184 3186 3187 3190 3192 3193 3194 3196 3197 3196 3197 3198 3198 3199 3200 3201 3204 3205 3206 3208 3209 3210 3210 3211 3212 3213 3214 3215 3216 3217 3217 3216 3216 3217
3172 3168 3168 3168 3171 3173 3175 3177 3180 3182 3184 3187 3189 3190 3192 3193 3195 3195 3195 3197 3198 3198 3200 3202 3202 3202 3200 3203 3205 3207 3208 3208 3208 3209 3210 3211 3212 3212 3212 3212 3211 3211 3211
3171 3169 3168 3168 3171 3172 3174 3176 3178 3180 3182 3185 3187 3188 3189 3191 3192 3193 3195 3197 3196 3197 3199 3201 3200 3200 3200 3197 3201 3203 3205 3206 3206 3206 3207 3207 3207 3207 3207 3207 3206 3206 3206
3168 3168 3170 3170 3171 3172 3173 3176 3177 3179 3180 3182 3184 3186 3188 3188 3191 3191 3192 3193 3194 3194 3194 3197 3198 3197 3199 3199 3199 3202 3203 3202 3202 3202 3202 3202 3202 3202 3202 3201 3201 3201 3201
3166 3169 3169 3170 3172 3173 3174 3176 3177 3177 3179 3181 3182 3183 3184 3186 3188 3190 3190 3191 3192 3192 3194 3195 3195 3195 3197 3197 3197 3197 3197 3198 3197 3197 3197 3197 3197 3197 3196 3196 3196 3196 3195
3168 3168 3169 3169 3171 3171 3173 3173 3175 3175 3177 3178 3179 3180 3181 3183 3185 3185 3186 3187 3188 3189 3190 3190 3193 3193 3194 3193 3193 3193 3193 3192 3193 3193 3191 3191 3191 3192 3192 3191 3190 3190 3189
3169 3170 3170 3170 3170 3170 3171 3172 3172 3172 3173 3174 3175 3175 3179 3180 3181 3182 3182 3183 3183 3185 3185 3185 3186 3188 3187 3187 3186 3186 3186 3185 3186 3186 3185 3184 3183 3183 3183 3184 3184 3183 3182
3169 3170 3170 3170 3170 3170 3170 3170 3170 3170 3170 3170 3171 3172 3173 3176 3177 3176 3177 3178 3179 3180 3180 3181 3182 3181 3180 3180 3180 3180 3179 3179 3179 3179 3178 3177 3176 3176 3175 3176 3175 3174 3173
3169 3169 3168 3168 3169 3168 3168 3168 3167 3167 3167 3167 3167 3167 3167 3169 3170 3171 3172 3172 3172 3172 3173 3174 3176 3176 3175 3174 3174 3174 3173 3171 3171 3171 3166 3167 3169 3168 3168 3167 3165 3164 3164
3168 3168 3168 3168 3167 3166 3166 3165 3166 3165 3164 3164 3163 3164 3161 3165 3166 3166 3165 3165 3165 3165 3166 3166 3166 3167 3166 3165 3167 3165 3163 3162 3161 3162 3161 3159 3160 3159 3158 3157 3157 3156 3155
3165 3166 3166 3166 3167 3165 3164 3163 3162 3162 3162 3161 3160 3159 3159 3161 3160 3161 3161 3161 3161 3161 3161 3161 3160 3159 3159 3158 3157 3156 3156 3155 3155 3154 3152 3150 3150 3149 3149 3149 3148 3146 3145
3160 3161 3161 3162 3163 3162 3161 3160 3159 3158 3158 3158 3157 3156 3156 3157 3156 3156 3157 3157 3156 3156 3154 3154 3154 3153 3152 3151 3151 3150 3149 3148 3147 3147 3143 3142 3142 3140 3140 3141 3140 3140 3138
3151 3154 3156 3157 3158 3158 3157 3156 3156 3155 3154 3154 3155 3154 3153 3153 3153 3152 3152 3152 3151 3150 3148 3147 3146 3146 3145 3143 3142 3141 3141 3140 3139 3139 3134 3134 3134 3132 3132 3134 3133 3132 3130